User: anonymous   Login
Location: Boca do Mato
(22.9085°S, 43.2930°W)
Time: 18:39:39
(UTC+00:00)
Language:

Aurora 2 Rocket - Orbit

View from above orbital plane
View from above orbital plane
View from above satellite
View from above satellite

Ground track
Ground track

The orbit data is extracted from the following two-line orbital elements,

1 21393U 91037B   20269.85933120 +.00001035 +00000-0 +62154-4 0  9999
2 21393 024.9848 046.3274 0909198 356.7641 002.7271 13.51498230413068
Epoch (UTC): 25 September 2020 20:37:26
Eccentricity: 0.0909198
inclination: 24.9848°
perigee height: 390 km
apogee height: 1743 km
right ascension of ascending node: 46.3274°
argument of perigee: 356.7641°
revolutions per day: 13.51498230
mean anomaly at epoch: 2.7271°
orbit number at epoch: 41306

The dashed part of the orbit path shows where the satellite is in the earth's shadow,  

DLR